Location: Bieg
(49.3499°N, 10.3835°E)
Time: 22:40:19
(UTC+00:00)

Cosmos 2228 Rocket - Pass Details

Date: 23 May 2024
Orbit: 616 x 648 km, 82.5° (Epoch: 14 June)

Event Time Altitude Azimuth Distance (km) Brightness Sun altitude
Exits shadow 00:05:23 44° 199° (SSW) 874 3.3 -19.1°
Maximum altitude 00:06:46 81° 280° (W) 647 3.0 -19.1°
Drops below altitude 10° 00:11:17 10° 8° (N) 2,035 7.0 -18.9°
Sets 00:13:33 0° 10° (N) 2,954 8.2 -18.8°
